Regional Weather Roundup
Issued by NWS Burlington, VT

Home | Current Version | Previous Version | Text Only | Print | Product List | Glossary On
Versions: 1 2 3 4 5 6 7 8 9 10 11 12 13 14 15 16 17 18 19 20 21 22 23 24 25 26 27 28 29 30 31 32 33 34 35 36 37 38 39 40 41 42 43 44 45 46 47 48 49 50
000
ASUS41 KBTV 230430
RWRBTV
VERMONT REGIONAL WEATHER ROUNDUP
NATIONAL WEATHER SERVICE BURLINGTON VT
1200 AM EDT SAT AUG 23 2014

NOTE: "FAIR" INDICATES FEW OR NO CLOUDS BELOW 12,000 FEET WITH NO
SIGNIFICANT WEATHER AND/OR OBSTRUCTIONS TO VISIBILITY.

* THESE REPORTS ARE NOT UNDER NWS QUALITY CONTROL AND/OR DO NOT
  REPORT WEATHER SUCH AS PRECIPITATION AND FOG.

VTZ001>019-230500-
_____VERMONT_____


CITY           SKY/WX    TMP DP  RH WIND       PRES   REMARKS
BURLINGTON     CLOUDY    63  61  93 CALM      30.13R
MONTPELIER     CLOUDY    59  58  96 CALM      30.19R
MORRISVILLE    FOG       60  59  96 CALM      30.16S VSB 3/4
ST. JOHNSBURY*   N/A     61  60  97 MISG      30.13S
MIDDLEBURY*    CLOUDY    61  61 100 CALM      30.13S
RUTLAND*       CLOUDY    61  57  88 SE5       30.13S
SPRINGFIELD    CLOUDY    61  60  97 CALM      30.15R
HIGHGATE*      CLOUDY    62  60  94 CALM      30.13S
NEWPORT*       CLOUDY    60  60  99 S3        30.16R
BENNINGTON     CLOUDY    64  56  75 E3        30.12R
MT. MANSFIELD*   N/A     52 N/A N/A SE17        N/A

_____LAKE CHAMPLAIN_____


CITY           SKY/WX    TMP DP  RH WIND       PRES   REMARKS
BURTON ISLAND*   N/A     64  63  94 SE6         N/A
COLCHESTER RF*   N/A     64  63  94 SE7         N/A
DIAMOND ISL*     N/A     63  63 100 E1          N/A

$$

NYZ007-026>031-035-052-083-230500-
_____NORTHERN NEW YORK_____


CITY           SKY/WX    TMP DP  RH WIND       PRES   REMARKS
PLATTSBURGH    CLOUDY    62  60  93 CALM      30.12S
SARANAC LAKE   CLOUDY    60  55  83 S3        30.11R
MASSENA        CLOUDY    65  61  87 E3        30.10R
OGDENSBURG*    CLOUDY    64  63  94 CALM      30.07S
WATERTOWN      PTCLDY    64  58  80 CALM      30.04S
FT DRUM        CLOUDY    64  61  88 SE12      30.05S
ALBANY         CLOUDY    64  61  90 N3        30.10R

$$
NHZ002-005-011-230500-
_____NEW HAMPSHIRE_____


CITY           SKY/WX    TMP DP  RH WIND       PRES   REMARKS
LEBANON        CLOUDY    62  59  90 CALM      30.14S FOG
KEENE          CLOUDY    63  55  77 CALM      30.13S
MT WASHINGTON  FOG       43  43 100 E14         N/A  VSB 0
PLYMOUTH       CLOUDY    60  60 100 CALM      30.15S
WHITEFIELD     CLOUDY    63  60  90 CALM      30.15S

$$

_____REGIONAL QUEBEC LOCATIONS_____


CITY           SKY/WX    TMP DP  RH WIND       PRES   REMARKS
MONTREAL       PTCLDY    64  59  82 SE5       30.12S
QUEBEC CITY    PTCLDY    64  57  77 NE8       30.15F
SHERBROOKE     FOG       57  55  94 E2        30.15S VSB 3/4

_____REGIONAL ONTARIO LOCATIONS_____


CITY           SKY/WX    TMP DP  RH WIND       PRES   REMARKS
OTTAWA         MOCLDY    63  59  88 E9        30.09R

______KEY______
VSB  - VISIBILITY IN MILES
WCI  - WIND CHILL INDEX
HX   - HEAT INDEX
$$
NNNN


USA.gov is the U.S. government's official web portal to all federal, state and local government web resources and services.